TimeCST,TemperatureF,Dew PointF,Humidity,Sea Level PressureIn,VisibilityMPH,Wind Direction,Wind SpeedMPH,Gust SpeedMPH,PrecipitationIn,Events,Conditions,WindDirDegrees,DateUTC
12:15 AM,56.3,45.5,67,30.16,10.0,NE,4.6,-,N/A,,Overcast,40,2013-01-02 06:15:00
12:35 AM,55.9,45.0,67,30.16,10.0,NE,4.6,-,N/A,,Overcast,50,2013-01-02 06:35:00
12:55 AM,55.4,44.2,66,30.17,10.0,NNE,8.1,-,N/A,,Overcast,20,2013-01-02 06:55:00
1:15 AM,55.0,43.0,64,30.16,10.0,NNE,8.1,-,N/A,,Overcast,30,2013-01-02 07:15:00
1:35 AM,54.9,43.0,64,30.17,10.0,NNE,6.9,-,N/A,,Overcast,30,2013-01-02 07:35:00
1:55 AM,54.5,43.2,66,30.17,10.0,Calm,Calm,-,N/A,,Overcast,0,2013-01-02 07:55:00
2:15 AM,54.0,43.7,68,30.17,10.0,NNE,3.5,-,N/A,,Overcast,30,2013-01-02 08:15:00
2:35 AM,53.2,44.2,72,30.17,10.0,North,4.6,-,N/A,,Light Drizzle,10,2013-01-02 08:35:00
2:55 AM,52.7,44.6,74,30.17,10.0,NNE,5.8,-,N/A,,Light Drizzle,20,2013-01-02 08:55:00
3:15 AM,52.2,45.0,76,30.18,10.0,North,4.6,-,N/A,,Mostly Cloudy,10,2013-01-02 09:15:00
3:35 AM,51.8,44.8,77,30.20,10.0,North,3.5,-,N/A,,Scattered Clouds,360,2013-01-02 09:35:00
3:55 AM,51.4,44.1,76,30.20,10.0,NNE,4.6,-,N/A,Rain,Light Rain,20,2013-01-02 09:55:00
4:15 AM,50.9,43.5,76,30.20,10.0,NNE,5.8,-,N/A,Rain,Light Rain,20,2013-01-02 10:15:00
4:35 AM,50.2,42.8,76,30.19,10.0,NNE,4.6,-,N/A,,Light Drizzle,30,2013-01-02 10:35:00
4:55 AM,49.8,43.0,77,30.21,10.0,NNE,3.5,-,N/A,,Drizzle,30,2013-01-02 10:55:00
5:15 AM,49.5,43.2,79,30.21,10.0,Calm,Calm,-,N/A,Rain,Rain,0,2013-01-02 11:15:00
5:35 AM,49.1,43.9,82,30.22,10.0,Calm,Calm,-,N/A,,Drizzle,0,2013-01-02 11:35:00
5:55 AM,48.7,43.7,83,30.22,10.0,Calm,Calm,-,0.01,Rain,Light Rain,0,2013-01-02 11:55:00
6:15 AM,48.2,44.4,87,30.23,10.0,North,3.5,-,N/A,Rain,Light Rain,360,2013-01-02 12:15:00
6:35 AM,47.7,44.6,89,30.23,10.0,NNE,4.6,-,N/A,Rain,Light Rain,30,2013-01-02 12:35:00
6:55 AM,46.8,42.4,85,30.23,10.0,NNE,5.8,-,N/A,,Drizzle,30,2013-01-02 12:55:00
7:15 AM,46.6,42.3,85,30.24,10.0,NNE,3.5,-,N/A,,Drizzle,30,2013-01-02 13:15:00
7:35 AM,46.6,42.8,87,30.25,10.0,Calm,Calm,-,N/A,,Drizzle,0,2013-01-02 13:35:00
7:55 AM,46.8,43.9,90,30.28,10.0,Calm,Calm,-,0.01,Rain,Light Rain,0,2013-01-02 13:55:00
8:15 AM,46.4,43.7,90,30.28,7.0,North,3.5,-,0.01,Rain,Light Rain,10,2013-01-02 14:15:00
8:35 AM,45.9,43.7,92,30.28,7.0,North,5.8,-,0.02,Rain,Light Rain,10,2013-01-02 14:35:00
8:55 AM,45.7,43.7,93,30.29,7.0,North,4.6,-,0.03,Rain,Light Rain,10,2013-01-02 14:55:00
9:15 AM,45.9,43.3,91,30.29,7.0,NNE,3.5,-,N/A,Rain,Light Rain,30,2013-01-02 15:15:00
9:35 AM,45.9,43.9,93,30.29,7.0,NNE,5.8,-,0.01,Rain,Rain,30,2013-01-02 15:35:00
9:55 AM,45.9,44.6,95,30.30,5.0,NNE,5.8,-,0.02,Rain,Light Rain,30,2013-01-02 15:55:00
10:15 AM,45.1,42.3,90,30.30,7.0,NE,6.9,-,N/A,Rain,Rain,40,2013-01-02 16:15:00
10:35 AM,45.5,43.0,91,30.31,7.0,NE,5.8,-,0.01,Rain,Light Rain,40,2013-01-02 16:35:00
10:55 AM,45.5,43.0,91,30.31,5.0,NNE,4.6,-,0.02,Rain,Rain,20,2013-01-02 16:55:00
11:15 AM,45.1,42.3,90,30.31,5.0,NE,4.6,-,0.01,Rain,Rain,50,2013-01-02 17:15:00
11:35 AM,45.3,44.1,95,30.30,5.0,North,8.1,-,0.02,Rain,Rain,10,2013-01-02 17:35:00
11:55 AM,43.7,42.4,95,30.30,7.0,NNE,8.1,-,0.04,Rain,Light Rain,20,2013-01-02 17:55:00
12:15 PM,43.0,41.7,95,30.28,7.0,NNE,8.1,-,0.02,Rain,Light Rain,20,2013-01-02 18:15:00
12:35 PM,42.8,40.8,93,30.26,10.0,NNE,8.1,-,0.04,Rain,Light Rain,30,2013-01-02 18:35:00
12:55 PM,43.2,41.9,95,30.25,10.0,NE,6.9,-,0.05,Rain,Light Rain,40,2013-01-02 18:55:00
1:15 PM,43.3,42.3,96,30.24,7.0,NNE,4.6,-,0.01,Rain,Light Rain,20,2013-01-02 19:15:00
1:35 PM,43.3,42.6,97,30.24,7.0,NNE,5.8,-,0.01,Rain,Rain,20,2013-01-02 19:35:00
1:55 PM,42.3,40.6,94,30.24,7.0,NNE,8.1,-,0.02,Rain,Rain,30,2013-01-02 19:55:00
2:15 PM,42.8,41.7,96,30.23,10.0,NNE,4.6,-,0.01,Rain,Light Rain,30,2013-01-02 20:15:00
2:35 PM,43.0,42.1,97,30.23,7.0,NNE,6.9,-,0.01,Rain,Light Rain,20,2013-01-02 20:35:00
2:55 PM,43.0,41.5,95,30.23,10.0,NNE,4.6,-,0.01,Rain,Light Rain,30,2013-01-02 20:55:00
3:15 PM,43.2,41.2,93,30.23,10.0,NE,5.8,-,N/A,Rain,Light Rain,50,2013-01-02 21:15:00
3:35 PM,43.5,41.9,94,30.23,10.0,NE,4.6,-,0.01,Rain,Light Rain,40,2013-01-02 21:35:00
3:55 PM,43.7,42.3,95,30.23,7.0,ENE,3.5,-,0.01,Rain,Light Rain,70,2013-01-02 21:55:00
4:15 PM,43.9,42.6,95,30.23,7.0,ENE,4.6,-,0.01,Rain,Rain,60,2013-01-02 22:15:00
4:35 PM,43.9,42.8,96,30.23,7.0,East,3.5,-,0.01,Rain,Light Rain,80,2013-01-02 22:35:00
4:55 PM,43.7,42.4,95,30.24,10.0,NE,3.5,-,0.01,Rain,Rain,50,2013-01-02 22:55:00
5:15 PM,43.9,43.0,97,30.24,7.0,East,3.5,-,N/A,Rain,Light Rain,80,2013-01-02 23:15:00
5:35 PM,43.9,43.2,97,30.24,7.0,Calm,Calm,-,0.01,,Drizzle,0,2013-01-02 23:35:00
5:55 PM,43.9,43.2,97,30.24,7.0,ENE,3.5,-,0.01,,Light Drizzle,70,2013-01-02 23:55:00
6:15 PM,44.1,43.3,97,30.24,7.0,NNE,3.5,-,N/A,,Drizzle,30,2013-01-03 00:15:00
6:35 PM,43.9,43.2,97,30.25,10.0,NNE,4.6,-,N/A,,Overcast,30,2013-01-03 00:35:00
6:55 PM,43.9,43.5,99,30.25,7.0,NNE,3.5,-,N/A,,Overcast,30,2013-01-03 00:55:00
7:15 PM,43.9,43.5,99,30.26,7.0,North,3.5,-,N/A,,Overcast,360,2013-01-03 01:15:00
7:35 PM,43.9,43.3,98,30.27,7.0,Calm,Calm,-,N/A,,Overcast,0,2013-01-03 01:35:00
7:55 PM,43.9,43.2,97,30.28,10.0,Calm,Calm,-,N/A,,Overcast,0,2013-01-03 01:55:00
8:15 PM,43.9,43.0,97,30.29,10.0,Calm,Calm,-,N/A,,Overcast,0,2013-01-03 02:15:00
8:35 PM,43.9,42.8,96,30.30,10.0,NNE,3.5,-,N/A,,Overcast,20,2013-01-03 02:35:00
8:55 PM,43.9,42.8,96,30.30,10.0,Calm,Calm,-,N/A,,Overcast,0,2013-01-03 02:55:00
9:15 PM,43.9,43.2,97,30.30,7.0,North,3.5,-,N/A,,Overcast,360,2013-01-03 03:15:00
9:35 PM,43.7,42.8,97,30.30,7.0,North,4.6,-,N/A,,Overcast,360,2013-01-03 03:35:00
9:55 PM,43.3,42.1,95,30.30,10.0,NNE,3.5,-,N/A,,Overcast,20,2013-01-03 03:55:00
10:15 PM,43.5,41.9,94,30.30,10.0,Calm,Calm,-,N/A,,Overcast,0,2013-01-03 04:15:00
10:35 PM,43.3,41.7,94,30.30,10.0,Calm,Calm,-,N/A,,Overcast,0,2013-01-03 04:35:00
10:55 PM,43.3,42.4,97,30.29,7.0,Calm,Calm,-,N/A,,Overcast,0,2013-01-03 04:55:00
11:15 PM,43.2,42.3,97,30.30,7.0,Calm,Calm,-,N/A,,Overcast,0,2013-01-03 05:15:00
11:35 PM,43.2,42.3,97,30.30,7.0,Calm,Calm,-,N/A,,Overcast,0,2013-01-03 05:35:00
11:55 PM,43.3,42.6,97,30.30,7.0,Calm,Calm,-,N/A,,Overcast,0,2013-01-03 05:55:00